Weather History for Joplin, MO

Change the Weather History Date:

Thursday, December 20, 2012

  Actual Average Record
Temperature  
Mean Temperature 45 °F 36 °F  
Max Temperature 62 °F 46 °F 70 °F (1979)
Min Temperature 27 °F 26 °F 0 °F (1983)
Degree Days  
Heating Degree Days 20 29  
Month to date heating degree days 354 534  
Since 1 July heating degree days 1140 1291  
Cooling Degree Days 0 0  
Month to date cooling degree days 0 0  
Year to date cooling degree days 2106 1698  
Moisture  
Dew Point 25 °F    
Average Humidity 69    
Maximum Humidity 86    
Minimum Humidity 52    
Precipitation  
Precipitation T in 0.08 in 2.04 in (1991)
Month to date precipitation 0.89 1.93  
Year to date precipitation 37.85 45.66  
Snow  
Snow T in - - ()
Month to date snowfall T  
Snow Depth 0.00 in    
Sea Level Pressure  
Sea Level Pressure 29.92 in    
Wind  
Wind Speed 22 mph (WNW)    
Max Wind Speed 37 mph    
Max Gust Speed 47 mph    
Visibility 9 miles    
Events Snow    
T = Trace of Precipitation, MM = Missing Value Source: NWS Daily Summary

Daily Weather History Graph

Daily Weather History Graph

Search for Another Location

Airport:

Trip Planner

Search our weather history database for the weather conditions in past years. The results will help you decide how hot, cold, wet, or windy it might be!

Date:

Astronomy

Dec. 20, 2012 Rise Set
Actual Time 7:27 AM CST 5:04 PM CST
Civil Twilight 6:58 AM CST 5:33 PM CST
Nautical Twilight 6:25 AM CST 6:05 PM CST
Astronomical Twilight 5:54 AM CST 6:37 PM CST
Moon 12:16 PM CST (12/20) 12:22 AM CST (12/20)
Length of Visible Light 10h 34m
Length of Day
9h 36m
First Quarter, 55% of the Moon is Illuminated
Dec 20
First Quarter
Dec 28
Full
Jan 4
Last Quarter
Jan 11
New
Jan 18
First Quarter

Hourly Weather History & Observations

Time (CST) Temp. Windchill Dew Point Humidity Pressure Visibility Wind Dir Wind Speed Gust Speed Precip Events Conditions
12:53 AM 55.9 °F - 44.1 °F 64% 29.37 in 10.0 mi SW 9.2 mph - N/A   Overcast
1:43 AM 51.8 °F - 46.4 °F 82% 29.42 in 10.0 mi West 26.5 mph 39.1 mph N/A   Mostly Cloudy
1:53 AM 48.0 °F - 43.0 °F 83% 29.43 in 9.0 mi West 27.6 mph 41.4 mph N/A   Overcast
2:53 AM 41.0 °F 31.6 °F 37.9 °F 89% 29.49 in 8.0 mi West 20.7 mph 27.6 mph 0.00 in   Overcast
3:38 AM 37.4 °F 26.9 °F 35.6 °F 93% 29.53 in 10.0 mi West 20.7 mph 33.4 mph 0.00 in   Overcast
3:53 AM 37.9 °F 26.8 °F 34.0 °F 86% 29.54 in 10.0 mi West 24.2 mph 33.4 mph 0.00 in   Overcast
4:31 AM 35.6 °F 23.4 °F 30.2 °F 81% 29.58 in 10.0 mi West 25.3 mph 38.0 mph 0.00 in   Overcast
4:53 AM 35.1 °F 21.4 °F 30.9 °F 85% 29.60 in 9.0 mi West 32.2 mph 41.4 mph 0.00 in   Overcast
5:53 AM 33.1 °F 18.9 °F 27.0 °F 78% 29.69 in 10.0 mi WNW 31.1 mph 39.1 mph 0.00 in   Overcast
6:53 AM 30.0 °F 16.3 °F 25.0 °F 82% 29.78 in 4.0 mi WNW 24.2 mph 34.5 mph 0.00 in Snow Light Snow
7:27 AM 30.2 °F 17.1 °F 26.6 °F 86% 29.82 in 2.0 mi WNW 21.9 mph 33.4 mph 0.00 in Snow Light Snow
7:50 AM 30.2 °F 15.4 °F 26.6 °F 86% 29.84 in 2.0 mi WNW 28.8 mph 39.1 mph 0.00 in Snow Light Snow
7:53 AM 30.0 °F 15.4 °F 27.0 °F 88% 29.84 in 2.0 mi WNW 27.6 mph 39.1 mph 0.00 in Snow Light Snow
8:39 AM 30.2 °F 15.4 °F 24.8 °F 80% 29.89 in 8.0 mi WNW 28.8 mph 39.1 mph 0.00 in   Overcast
8:53 AM 30.9 °F 17.5 °F 24.1 °F 76% 29.91 in 10.0 mi WNW 24.2 mph 42.6 mph 0.00 in   Overcast
9:53 AM 30.0 °F 14.7 °F 23.0 °F 75% 29.97 in 10.0 mi WNW 31.1 mph 38.0 mph N/A   Mostly Cloudy
10:45 AM 32.0 °F 17.9 °F 21.2 °F 64% 30.00 in 10.0 mi WNW 28.8 mph 40.3 mph N/A   Scattered Clouds
10:53 AM 33.1 °F 18.2 °F 21.9 °F 64% 30.00 in 10.0 mi WNW 34.5 mph 43.7 mph N/A   Scattered Clouds
11:53 AM 34.0 °F 21.5 °F 21.9 °F 61% 30.03 in 10.0 mi WNW 24.2 mph 36.8 mph N/A   Scattered Clouds
12:53 PM 35.1 °F 21.8 °F 21.9 °F 59% 30.06 in 10.0 mi WNW 29.9 mph 36.8 mph N/A   Partly Cloudy
1:53 PM 36.0 °F 24.4 °F 21.0 °F 55% 30.09 in 10.0 mi WNW 23.0 mph 36.8 mph N/A   Clear
2:53 PM 36.0 °F 23.7 °F 21.0 °F 55% 30.12 in 10.0 mi WNW 26.5 mph 35.7 mph N/A   Clear
3:53 PM 36.0 °F 24.4 °F 19.0 °F 50% 30.16 in 10.0 mi WNW 23.0 mph 36.8 mph N/A   Clear
4:53 PM 33.1 °F 22.2 °F 19.0 °F 56% 30.21 in 10.0 mi WNW 17.3 mph 28.8 mph N/A   Clear
5:53 PM 30.9 °F 21.2 °F 19.0 °F 61% 30.23 in 10.0 mi WNW 12.7 mph 21.9 mph N/A   Clear
6:53 PM 30.0 °F 19.5 °F 19.0 °F 64% 30.26 in 10.0 mi WNW 13.8 mph - N/A   Clear
7:53 PM 28.9 °F 18.6 °F 17.1 °F 61% 30.27 in 10.0 mi West 12.7 mph - N/A   Clear
8:53 PM 28.9 °F 19.2 °F 16.0 °F 58% 30.29 in 10.0 mi West 11.5 mph - N/A   Clear
9:53 PM 28.0 °F 18.6 °F 15.1 °F 58% 30.31 in 10.0 mi West 10.4 mph - N/A   Clear
10:53 PM 28.0 °F 18.6 °F 15.1 °F 58% 30.32 in 10.0 mi West 10.4 mph - N/A   Clear
11:53 PM 27.0 °F 18.7 °F 15.1 °F 61% 30.32 in 10.0 mi West 8.1 mph - N/A   Clear